Georgetown, SC

3:03 AM EST on January 20, 2018 (GMT -0500)
Georgetown County

Weather History for KGGE - February, 2012

Change the Weather History Date:

Tuesday, February 28, 2012

  Actual Average Record
Temperature  
Mean Temperature 59 °F -  
Max Temperature 68 °F 64 °F 78 °F (2011)
Min Temperature 50 °F 39 °F 30 °F (2014)
Degree Days  
Heating Degree Days 6    
Growing Degree Days 9 (Base 50)    
Moisture  
Dew Point 45 °F    
Average Humidity 69    
Maximum Humidity 94    
Minimum Humidity 26    
Precipitation  
Precipitation 0.00 in - - ()
Sea Level Pressure  
Sea Level Pressure 30.37 in    
Wind  
Wind Speed 6 mph (NNE)    
Max Wind Speed 16 mph    
Max Gust Speed 22 mph    
Visibility 9 miles    
Events      
Averages and records for this station are not official NWS values.
T = Trace of Precipitation, MM = Missing Value Source: NWS Daily Summary

Daily Weather History Graph

Daily Weather History Graph

Search for Another Location

Airport or City:

Trip Planner

Search our weather history database for the weather conditions in past years. The results will help you decide how hot, cold, wet, or windy it might be!

Date:

Astronomy

Feb. 28, 2012 Rise Set
Actual Time 6:47 AM EST 6:12 PM EST
Civil Twilight 6:22 AM EST 6:37 PM EST
Nautical Twilight 5:53 AM EST 7:06 PM EST
Astronomical Twilight 5:24 AM EST 7:35 PM EST
Moon 10:15 AM EST (2/28) No Moon Set
Length of Visible Light 12h 15m
Length of Day
11h 25m
Waxing Crescent, 37% of the Moon is Illuminated
Feb 28
Waxing Crescent
Feb 29
First Quarter
Mar 8
Full
Mar 14
Last Quarter
Mar 22
New

Hourly Weather History & Observations

Time (EST) Temp. Dew Point Humidity Pressure Visibility Wind Dir Wind Speed Gust Speed Precip Events Conditions
12:15 AM 53.6 °F 51.8 °F 94% 30.35 in 10.0 mi WNW 3.5 mph - N/A   Overcast
12:35 AM 53.6 °F 51.8 °F 94% 30.35 in 7.0 mi WNW 4.6 mph - N/A   Overcast
12:55 AM 53.6 °F 51.8 °F 94% 30.35 in 7.0 mi NNW 3.5 mph - N/A   Overcast
1:15 AM 53.6 °F 51.8 °F 94% 30.35 in 10.0 mi NW 3.5 mph - N/A   Overcast
1:55 AM 53.6 °F 51.8 °F 94% 30.35 in 10.0 mi NW 4.6 mph - N/A   Overcast
2:35 AM 53.6 °F 51.8 °F 94% 30.35 in 7.0 mi NNW 3.5 mph - N/A   Overcast
2:55 AM 53.6 °F 51.8 °F 94% 30.35 in 10.0 mi NW 3.5 mph - N/A   Overcast
3:15 AM 53.6 °F 51.8 °F 94% 30.35 in 10.0 mi WNW 5.8 mph - N/A   Overcast
3:35 AM 53.6 °F 51.8 °F 94% 30.35 in 10.0 mi NW 4.6 mph - N/A   Overcast
4:15 AM 53.6 °F 51.8 °F 94% 30.35 in 10.0 mi NW 3.5 mph - N/A   Overcast
4:35 AM 53.6 °F 51.8 °F 94% 30.35 in 5.0 mi Calm Calm - N/A   Overcast
4:55 AM 53.6 °F 51.8 °F 94% 30.35 in 7.0 mi NW 3.5 mph - N/A   Overcast
5:15 AM 51.8 °F 50.0 °F 94% 30.35 in 1.0 mi NW 4.6 mph - N/A   Overcast
5:35 AM 51.8 °F 50.0 °F 94% 30.35 in 1.0 mi NW 6.9 mph - N/A   Overcast
5:55 AM 51.8 °F 50.0 °F 94% 30.36 in 2.5 mi North 5.8 mph - N/A   Overcast
6:15 AM 51.8 °F 50.0 °F 94% 30.36 in 4.0 mi NNW 6.9 mph - N/A   Overcast
6:35 AM 51.8 °F 50.0 °F 94% 30.37 in 10.0 mi North 5.8 mph - N/A   Overcast
7:15 AM 51.8 °F 50.0 °F 94% 30.38 in 5.0 mi North 4.6 mph - N/A   Overcast
7:35 AM 51.8 °F 50.0 °F 94% 30.38 in 7.0 mi North 5.8 mph - N/A   Overcast
7:55 AM 50.0 °F 48.2 °F 94% 30.39 in 7.0 mi North 5.8 mph - N/A   Overcast
8:15 AM 51.8 °F 48.2 °F 88% 30.40 in 10.0 mi North 4.6 mph - N/A   Scattered Clouds
8:35 AM 53.6 °F 48.2 °F 82% 30.41 in 10.0 mi NNW 4.6 mph - N/A   Clear
8:55 AM 53.6 °F 46.4 °F 77% 30.41 in 10.0 mi North 6.9 mph - N/A   Clear
9:15 AM 55.4 °F 46.4 °F 72% 30.41 in 10.0 mi NNE 8.1 mph - N/A   Clear
9:35 AM 57.2 °F 46.4 °F 67% 30.40 in 10.0 mi NNE 9.2 mph - N/A   Clear
9:55 AM 59.0 °F 44.6 °F 59% 30.41 in 10.0 mi NNE 8.1 mph - N/A   Clear
10:15 AM 60.8 °F 44.6 °F 55% 30.41 in 10.0 mi NNE 11.5 mph 16.1 mph N/A   Clear
10:35 AM 62.6 °F 42.8 °F 48% 30.41 in 10.0 mi NNE 10.4 mph - N/A   Clear
10:55 AM 62.6 °F 42.8 °F 48% 30.40 in 10.0 mi NNE 9.2 mph - N/A   Clear
11:15 AM 64.4 °F 42.8 °F 45% 30.40 in 10.0 mi NE 11.5 mph 16.1 mph N/A   Clear
11:35 AM 68.0 °F 39.2 °F 35% 30.40 in 10.0 mi NE 10.4 mph - N/A   Clear
11:55 AM 68.0 °F 33.8 °F 28% 30.39 in 10.0 mi NE 16.1 mph 19.6 mph N/A   Clear
12:15 PM 68.0 °F 33.8 °F 28% 30.39 in 10.0 mi ENE 11.5 mph 20.7 mph N/A   Clear
12:35 PM 68.0 °F 33.8 °F 28% 30.38 in 10.0 mi ENE 12.7 mph - N/A   Clear
12:55 PM 68.0 °F 32.0 °F 26% 30.38 in 10.0 mi ENE 16.1 mph 21.9 mph N/A   Clear
1:15 PM 68.0 °F 33.8 °F 28% 30.37 in 10.0 mi ENE 15.0 mph 18.4 mph N/A   Clear
1:35 PM 68.0 °F 33.8 °F 28% 30.36 in 10.0 mi ENE 15.0 mph 18.4 mph N/A   Clear
1:55 PM 66.2 °F 33.8 °F 30% 30.35 in 10.0 mi East 13.8 mph 19.6 mph N/A   Clear
2:15 PM 66.2 °F 33.8 °F 30% 30.35 in 10.0 mi East 10.4 mph 19.6 mph N/A   Clear
2:35 PM 64.4 °F 35.6 °F 34% 30.36 in 10.0 mi ENE 12.7 mph 19.6 mph N/A   Clear
2:55 PM 64.4 °F 35.6 °F 34% 30.35 in 10.0 mi ENE 13.8 mph - N/A   Clear
3:15 PM 64.4 °F 37.4 °F 37% 30.36 in 10.0 mi East 13.8 mph 18.4 mph N/A   Clear
3:35 PM 62.6 °F 42.8 °F 48% 30.36 in 10.0 mi East 8.1 mph - N/A   Clear
3:55 PM 62.6 °F 46.4 °F 55% 30.36 in 10.0 mi ESE 9.2 mph - N/A   Clear
4:15 PM 60.8 °F 46.4 °F 59% 30.35 in 10.0 mi East 9.2 mph - N/A   Clear
4:35 PM 60.8 °F 46.4 °F 59% 30.35 in 10.0 mi ENE 10.4 mph - N/A   Clear
4:55 PM 59.0 °F 46.4 °F 63% 30.34 in 10.0 mi East 10.4 mph - N/A   Clear
5:15 PM 59.0 °F 46.4 °F 63% 30.35 in 10.0 mi East 9.2 mph - N/A   Clear
5:35 PM 59.0 °F 46.4 °F 63% 30.35 in 10.0 mi East 6.9 mph - N/A   Clear
5:55 PM 55.4 °F 46.4 °F 72% 30.36 in 10.0 mi East 5.8 mph - N/A   Clear
6:15 PM 55.4 °F 46.4 °F 72% 30.37 in 10.0 mi East 3.5 mph - N/A   Clear
6:35 PM 53.6 °F 46.4 °F 77% 30.37 in 10.0 mi Calm Calm - N/A   Clear
6:55 PM 53.6 °F 46.4 °F 77% 30.36 in 10.0 mi ENE 4.6 mph - N/A   Clear
7:15 PM 53.6 °F 46.4 °F 77% 30.35 in 10.0 mi ENE 5.8 mph - N/A   Clear
7:35 PM 53.6 °F 46.4 °F 77% 30.36 in 10.0 mi ENE 5.8 mph - N/A   Clear
7:55 PM 53.6 °F 46.4 °F 77% 30.36 in 10.0 mi NE 4.6 mph - N/A   Clear
8:35 PM 51.8 °F 46.4 °F 82% 30.34 in 10.0 mi ENE 6.9 mph - N/A   Clear
8:55 PM 53.6 °F 46.4 °F 77% 30.35 in 10.0 mi ENE 3.5 mph - N/A   Scattered Clouds
9:15 PM 51.8 °F 46.4 °F 82% 30.36 in 10.0 mi ENE 3.5 mph - N/A   Scattered Clouds
9:35 PM 51.8 °F 46.4 °F 82% 30.35 in 10.0 mi East 3.5 mph - N/A   Clear
9:55 PM 51.8 °F 48.2 °F 88% 30.35 in 10.0 mi East 4.6 mph - N/A   Scattered Clouds
10:15 PM 53.6 °F 48.2 °F 82% 30.34 in 10.0 mi East 4.6 mph - N/A   Mostly Cloudy
10:35 PM 53.6 °F 48.2 °F 82% 30.33 in 10.0 mi East 4.6 mph - N/A   Scattered Clouds
11:15 PM 51.8 °F 48.2 °F 88% 30.32 in 10.0 mi Calm Calm - N/A   Clear
11:35 PM 51.8 °F 48.2 °F 88% 30.31 in 10.0 mi East 3.5 mph - N/A   Clear
11:55 PM 51.8 °F 50.0 °F 94% 30.32 in 10.0 mi Calm Calm - N/A   Clear